| time (UTC) | temp C | wind direction | speed KPH | gust KPH | rain 1hr cm | rain 24hr cm | rain mn cm | humidity % | barometer mb |
| 20260831110056 | 19 | 304 | 0.0 | 0.0 | 0.00 | 0.23 | 0.00 | 98 | 1019.4 |
| 20260831104604 | 19 | 304 | 0.0 | 0.0 | 0.00 | 0.23 | 0.00 | 98 | 1019.3 |
| 20260831103054 | 19 | 304 | 0.0 | 0.0 | 0.00 | 0.23 | 0.00 | 98 | 1019.3 |
| 20260831101559 | 19 | 303 | 0.0 | 0.0 | 0.00 | 0.23 | 0.00 | 98 | 1019.1 |
| 20260831100057 | 19 | 304 | 0.0 | 0.0 | 0.00 | 0.23 | 0.00 | 98 | 1018.9 |
| 20260831094553 | 19 | 303 | 0.0 | 0.0 | 0.00 | 0.23 | 0.00 | 98 | 1018.9 |
| 20260831093055 | 19 | 303 | 0.0 | 0.0 | 0.00 | 0.23 | 0.00 | 98 | 1018.7 |
| 20260831091548 | 20 | 303 | 0.0 | 0.0 | 0.00 | 0.23 | 0.00 | 98 | 1018.7 |
| 20260831090057 | 20 | 304 | 0.0 | 0.0 | 0.00 | 0.23 | 0.00 | 98 | 1018.6 |
| 20260831084556 | 20 | 304 | 0.0 | 0.0 | 0.00 | 0.23 | 0.00 | 98 | 1018.7 |
| 20260831083045 | 20 | 303 | 0.0 | 0.0 | 0.00 | 0.23 | 0.00 | 98 | 1018.7 |
| 20260831081544 | 20 | 304 | 0.0 | 0.0 | 0.00 | 0.23 | 0.00 | 98 | 1018.5 |
| 20260831080043 | 20 | 304 | 0.0 | 0.0 | 0.00 | 0.23 | 0.00 | 98 | 1018.5 |
| 20260831074542 | 20 | 304 | 0.0 | 0.0 | 0.00 | 0.23 | 0.00 | 97 | 1018.4 |
| 20260831073042 | 20 | 304 | 0.0 | 0.0 | 0.00 | 0.23 | 0.00 | 97 | 1018.5 |
| 20260831071539 | 20 | 303 | 0.0 | 0.0 | 0.00 | 0.23 | 0.00 | 97 | 1018.6 |
| 20260831070046 | 21 | 304 | 0.0 | 0.0 | 0.00 | 0.23 | 0.00 | 97 | 1018.5 |
| 20260831064538 | 21 | 303 | 0.0 | 0.0 | 0.00 | 0.23 | 0.00 | 97 | 1018.7 |
| 20260831063042 | 21 | 303 | 0.0 | 0.0 | 0.00 | 0.23 | 0.00 | 97 | 1018.9 |
| 20260831061537 | 21 | 303 | 0.0 | 0.0 | 0.00 | 0.23 | 0.00 | 97 | 1018.7 |
| 20260831060035 | 21 | 304 | 0.0 | 0.0 | 0.00 | 0.23 | 0.00 | 97 | 1018.6 |
| 20260831054534 | 21 | 304 | 0.0 | 0.0 | 0.00 | 0.23 | 0.00 | 97 | 1018.4 |
| 20260831053038 | 21 | 304 | 0.0 | 0.0 | 0.00 | 0.23 | 0.00 | 97 | 1018.5 |
| 20260831051537 | 21 | 304 | 0.0 | 0.0 | 0.00 | 0.23 | 0.00 | 97 | 1018.6 |
| 20260831050036 | 21 | 304 | 0.0 | 0.0 | 0.00 | 0.23 | 0.00 | 96 | 1018.6 |
| 20260831044530 | 21 | 304 | 0.0 | 0.0 | 0.00 | 0.23 | 0.00 | 96 | 1018.7 |
| 20260831043028 | 21 | 304 | 0.0 | 0.0 | 0.00 | 0.23 | 0.00 | 96 | 1018.6 |
| 20260831041525 | 22 | 304 | 0.0 | 0.0 | 0.00 | 0.23 | 0.00 | 95 | 1018.7 |
| 20260831040025 | 22 | 303 | 0.0 | 0.0 | 0.00 | 0.23 | 0.00 | 95 | 1018.9 |
| 20260831034522 | 22 | 304 | 0.0 | 0.0 | 0.00 | 0.23 | 0.23 | 94 | 1018.9 |
| 20260831033039 | 22 | 320 | 0.0 | 0.0 | 0.00 | 0.23 | 0.23 | 93 | 1018.9 |
| 20260831031520 | 22 | 260 | 0.0 | 11.3 | 0.00 | 0.23 | 0.23 | 93 | 1018.9 |
| 20260831030022 | 22 | 197 | 3.2 | 14.5 | 0.00 | 0.23 | 0.23 | 92 | 1018.7 |
| 20260831024520 | 23 | 180 | 8.0 | 16.1 | 0.00 | 0.23 | 0.23 | 92 | 1018.7 |
| 20260831023019 | 23 | 173 | 3.2 | 14.5 | 0.00 | 0.23 | 0.23 | 94 | 1018.9 |
| 20260831021518 | 23 | 227 | 6.4 | 11.3 | 0.00 | 0.23 | 0.23 | 95 | 1018.7 |
| 20260831020018 | 23 | 202 | 1.6 | 11.3 | 0.15 | 0.23 | 0.23 | 96 | 1018.8 |
| 20260831014519 | 23 | 234 | 0.0 | 3.2 | 0.20 | 0.23 | 0.23 | 96 | 1018.7 |
| 20260831013017 | 23 | 203 | 0.0 | 3.2 | 0.23 | 0.23 | 0.23 | 96 | 1019.0 |
| 20260831011518 | 23 | 205 | 0.0 | 1.6 | 0.23 | 0.23 | 0.23 | 95 | 1018.7 |
| 20260831010015 | 23 | 240 | 0.0 | 0.0 | 0.05 | 0.05 | 0.05 | 93 | 1018.5 |
| 20260831004515 | 24 | 240 | 0.0 | 4.8 | 0.03 | 0.03 | 0.03 | 91 | 1018.4 |
| 20260831003020 | 24 | 211 | 1.6 | 6.4 | 0.00 | 0.00 | 0.00 | 89 | 1018.1 |
| 20260831001518 | 25 | 205 | 1.6 | 4.8 | 0.00 | 0.00 | 0.00 | 89 | 1018.0 |
| 20260831000013 | 25 | 200 | 1.6 | 8.0 | 0.00 | 0.00 | 0.00 | 88 | 1018.0 |
| 20260830234531 | 25 | 195 | 0.0 | 3.2 | 0.00 | 0.00 | 0.00 | 89 | 1017.8 |
| 20260830233011 | 25 | 208 | 0.0 | 3.2 | 0.00 | 0.00 | 0.00 | 90 | 1017.9 |
| 20260830231513 | 25 | 201 | 0.0 | 1.6 | 0.00 | 0.00 | 0.00 | 88 | 1018.0 |
| 20260830230009 | 26 | 200 | 0.0 | 4.8 | 0.00 | 0.00 | 0.00 | 86 | 1018.0 |
| 20260830224509 | 26 | 217 | 0.0 | 4.8 | 0.00 | 0.00 | 0.00 | 84 | 1018.0 |
| 20260830223009 | 26 | 196 | 1.6 | 4.8 | 0.00 | 0.00 | 0.00 | 81 | 1017.9 |
| 20260830221513 | 27 | 224 | 1.6 | 4.8 | 0.00 | 0.00 | 0.00 | 78 | 1017.8 |
| 20260830220009 | 27 | 177 | 0.0 | 11.3 | 0.00 | 0.00 | 0.00 | 75 | 1017.8 |
| 20260830214507 | 28 | 232 | 3.2 | 8.0 | 0.00 | 0.00 | 0.00 | 73 | 1017.7 |
| 20260830213005 | 27 | 209 | 1.6 | 8.0 | 0.00 | 0.00 | 0.00 | 74 | 1017.7 |
| 20260830211503 | 27 | 246 | 1.6 | 16.1 | 0.00 | 0.00 | 0.00 | 75 | 1017.8 |
| 20260830210003 | 27 | 250 | 4.8 | 12.9 | 0.00 | 0.00 | 0.00 | 74 | 1017.8 |
| 20260830204501 | 27 | 187 | 4.8 | 14.5 | 0.00 | 0.00 | 0.00 | 76 | 1017.8 |
| 20260830203100 | 27 | 170 | 0.0 | 9.7 | 0.00 | 0.00 | 0.00 | 80 | 1017.8 |
| 20260830201604 | 27 | 197 | 3.2 | 6.4 | 0.00 | 0.00 | 0.00 | 80 | 1017.8 |
| 20260830200056 | 26 | 99 | 0.0 | 4.8 | 0.00 | 0.00 | 0.00 | 82 | 1018.1 |
| 20260830194553 | 26 | 226 | 3.2 | 6.4 | 0.00 | 0.00 | 0.00 | 82 | 1018.4 |
| 20260830193052 | 26 | 204 | 1.6 | 11.3 | 0.00 | 0.00 | 0.00 | 79 | 1018.7 |
| 20260830191556 | 26 | 248 | 4.8 | 17.7 | 0.00 | 0.00 | 0.00 | 78 | 1019.0 |
| 20260830190100 | 27 | 208 | 4.8 | 12.9 | 0.00 | 0.00 | 0.00 | 77 | 1019.1 |
| 20260830184546 | 27 | 209 | 4.8 | 11.3 | 0.00 | 0.00 | 0.00 | 77 | 1019.0 |
| 20260830183043 | 26 | 184 | 4.8 | 14.5 | 0.00 | 0.00 | 0.00 | 78 | 1019.3 |
| 20260830181540 | 26 | 174 | 8.0 | 19.3 | 0.00 | 0.00 | 0.00 | 78 | 1019.5 |
| 20260830180037 | 26 | 204 | 6.4 | 14.5 | 0.00 | 0.00 | 0.00 | 78 | 1019.7 |
| 20260830174537 | 26 | 185 | 8.0 | 19.3 | 0.00 | 0.00 | 0.00 | 79 | 1019.9 |
| 20260830173031 | 25 | 205 | 3.2 | 12.9 | 0.00 | 0.00 | 0.00 | 82 | 1020.0 |
| 20260830171526 | 25 | 21 | 0.0 | 1.6 | 0.00 | 0.00 | 0.00 | 85 | 1020.3 |
| 20260830170039 | 23 | 22 | 0.0 | 1.6 | 0.00 | 0.00 | 0.00 | 86 | 1020.4 |
| 20260830164523 | 24 | 340 | 0.0 | 3.2 | 0.00 | 0.00 | 0.00 | 84 | 1020.6 |
| 20260830163026 | 24 | 267 | 1.6 | 8.0 | 0.00 | 0.00 | 0.00 | 84 | 1020.7 |
| 20260830161520 | 24 | 252 | 1.6 | 6.4 | 0.00 | 0.00 | 0.00 | 85 | 1020.8 |
| 20260830160025 | 24 | 247 | 1.6 | 8.0 | 0.00 | 0.00 | 0.00 | 85 | 1020.8 |
| 20260830154516 | 23 | 232 | 1.6 | 4.8 | 0.00 | 0.00 | 0.00 | 86 | 1021.1 |
| 20260830153014 | 23 | 257 | 0.0 | 4.8 | 0.00 | 0.00 | 0.00 | 86 | 1021.2 |
| 20260830151513 | 23 | 202 | 3.2 | 8.0 | 0.00 | 0.00 | 0.00 | 86 | 1021.3 |
| 20260830150017 | 23 | 254 | 4.8 | 14.5 | 0.00 | 0.00 | 0.00 | 85 | 1021.1 |
| 20260830144510 | 23 | 186 | 9.7 | 19.3 | 0.00 | 0.00 | 0.00 | 86 | 1021.2 |
| 20260830143007 | 22 | 185 | 3.2 | 16.1 | 0.00 | 0.00 | 0.00 | 89 | 1021.2 |
| 20260830141503 | 22 | 160 | 3.2 | 16.1 | 0.00 | 0.00 | 0.00 | 90 | 1021.3 |
| 20260830140106 | 21 | 171 | 3.2 | 11.3 | 0.00 | 0.00 | 0.00 | 91 | 1021.4 |
| 20260830134558 | 21 | 209 | 1.6 | 8.0 | 0.00 | 0.00 | 0.00 | 92 | 1021.5 |
| 20260830133053 | 21 | 230 | 6.4 | 14.5 | 0.00 | 0.00 | 0.00 | 93 | 1021.7 |
| 20260830131557 | 20 | 209 | 3.2 | 11.3 | 0.00 | 0.00 | 0.00 | 95 | 1021.9 |
| 20260830130046 | 18 | 232 | 1.6 | 4.8 | 0.00 | 0.00 | 0.00 | 97 | 1022.0 |
| 20260830124541 | 17 | 242 | 0.0 | 0.0 | 0.00 | 0.00 | 0.00 | 97 | 1022.1 |
| 20260830123040 | 16 | 242 | 0.0 | 0.0 | 0.00 | 0.00 | 0.00 | 97 | 1022.2 |
| 20260830121535 | 16 | 242 | 0.0 | 0.0 | 0.00 | 0.00 | 0.00 | 97 | 1022.3 |
| 20260830120035 | 15 | 242 | 0.0 | 0.0 | 0.00 | 0.00 | 0.00 | 97 | 1022.3 |
| 20260830114532 | 15 | 242 | 0.0 | 0.0 | 0.00 | 0.00 | 0.00 | 97 | 1022.4 |
| 20260830113031 | 15 | 254 | 0.0 | 0.0 | 0.00 | 0.00 | 0.00 | 97 | 1022.4 |
| 20260830111532 | 15 | 254 | 0.0 | 0.0 | 0.00 | 0.00 | 0.00 | 97 | 1022.4 |